Regional Weather Roundup
Issued by NWS

Home | Current Version | Previous Version | Graphics & Text | Print | Product List | Glossary On
Versions: 1 2 3 4 5 6 7 8 9 10 11 12 13 14 15 16 17 18 19 20 21 22 23 24 25 26 27 28 29 30 31 32 33 34 35 36 37 38 39 40 41 42 43 44 45 46 47 48 49 50
000
ASUS43 KDMX 240203
RWRIA

WEATHER ROUNDUP FOR IOWA
NATIONAL WEATHER SERVICE DES MOINES IA
900 PM CDT TUE AUG 23 2016

NOTE: "FAIR" INDICATES FEW OR NO CLOUDS BELOW 12,000 FEET WITH NO
SIGNIFICANT WEATHER AND/OR OBSTRUCTIONS TO VISIBILITY.

* - THESE STATIONS ARE NOT NWS STATIONS...THUS NOT UNDER NWS
QUALITY CONTROL.  THEY ALSO DO NOT REPORT WEATHER SUCH
AS PRECIPITATION OR FOG.

IAZ001>003-012>014-020>022-031>034-043>046-240300-
   NORTHWEST IOWA

CITY           SKY/WX    TMP DP  RH WIND       PRES   REMARKS
CARROLL *      CLOUDY    77  73  88 S10       29.85S
CHEROKEE *     RAIN      74  73  97 S7        29.82R
DENISON *      CLOUDY    77  73  88 S9G15     29.82S
LE MARS *      CLOUDY    77  73  88 SE14      29.80R
ORANGE CITY *  CLOUDY    73  72  94 SE5       29.82R
SHELDON *      CLOUDY    72  72 100 SE8       29.81R
SIOUX CITY     CLOUDY    78  74  87 SE10      29.79R HX  81
SPENCER        CLOUDY    73  70  90 SE7       29.84R
STORM LAKE *   CLOUDY    73  72  94 S15       29.84S
$$

IAZ055>058-069>071-079>083-090>094-240300-
   SOUTHWEST IOWA

CITY           SKY/WX    TMP DP  RH WIND       PRES   REMARKS
ATLANTIC *     CLOUDY    79  75  89 S10       29.85R HX  82
AUDUBON *      LGT RAIN  77  73  88 SE6       29.86R
CLARINDA *       N/A     79  73  83 MISG      29.89S HX  82
COUNCIL BLFS * CLOUDY    79  72  78 S18       29.80F HX  82
CRESTON *      MOCLDY    75  73  94 S12G18    29.92R
HARLAN  *      CLOUDY    79  75  89 S12G24    29.88R HX  82
LAMONI         PTCLDY    75  74  96 S9G18     29.92R
RED OAK *      PTCLDY    79  72  78 S10G20    29.85S HX  82
SHENANDOAH *   CLOUDY    79  45  29 S15G21    29.87R
$$

IAZ047>049-059>061-072>074-084-240300-
   CENTRAL IOWA

CITY           SKY/WX    TMP DP  RH WIND       PRES   REMARKS
AMES           MOCLDY    75  73  93 S10       29.89R
ANKENY *         N/A    N/A N/A N/A MISG        N/A
BOONE *          N/A     75  72  88 S13G20    29.88R
CHARITON *       N/A     75  72  88 MISG      29.93R
DES MOINES     MOCLDY    78  72  81 S15       29.89R HX  80
GRINNELL*      CLOUDY    74  70  86 SE12      29.94R
KNOXVILLE *    CLOUDY    75  72  88 S10G20    29.91R
MARSHALLTOWN   CLOUDY    75  72  90 S15       29.90S
NEWTON *       CLOUDY    75  73  94 SE13      29.92R
PERRY *          N/A     76  74  95 SE10      29.88R
$$

IAZ004>006-015-016-023>025-035-036-240300-
   NORTH CENTRAL IOWA

CITY           SKY/WX    TMP DP  RH WIND       PRES   REMARKS
ALGONA *       CLOUDY    68  68 100 SE9       29.85F
ESTHERVILLE    CLOUDY    67  67 100 VRB3      29.85R
FORT DODGE *   CLOUDY    75  70  83 S9        29.87S
MASON CITY     LGT RAIN  66  65  96 SE9       29.91S
FOREST CITY *  CLOUDY    64  64 100 SE5       29.89S
WEBSTER CITY * CLOUDY    75  73  94 S13       29.86S
IOWA FALLS *   CLOUDY    75  71  86 SE12G20   29.91S
$$

IAZ007>011-017>019-026>030-037>042-050>054-066-240300-
   NORTHEAST IOWA

CITY           SKY/WX    TMP DP  RH WIND       PRES   REMARKS
CEDAR RAPIDS   CLOUDY    73  72  96 SE13G22   29.96S
CHARLES CITY * CLOUDY    66  66 100 E8        29.92F
CLINTON *      CLOUDY    73  68  84 S13         N/A
DUBUQUE        CLOUDY    72  67  84 S14       30.01S
MONTICELLO *   CLOUDY    73  70  88 S16       29.98S
OELWEIN *      CLOUDY    73  70  88 S16       29.94F
WATERLOO       CLOUDY    74  69  85 S15G22    29.90F
$$

IAZ064-065-067-068-078-240300-
   EAST CENTRAL IOWA

CITY           SKY/WX    TMP DP  RH WIND       PRES   REMARKS
DAVENPORT      CLOUDY    73  68  84 S14G20    30.03S
IOWA CITY      CLOUDY    73  70  90 SE13      29.99R
MT. PLEASANT * PTCLDY    74  74  98 S9        30.00R
MUSCATINE *    CLOUDY    73  70  88 SE13      30.00S
QUAD CITIES    CLOUDY    74  68  81 S13       30.02F
$$

IAZ062-063-075>077-085>089-095>099-240300-
   SOUTHEAST IOWA

CITY           SKY/WX    TMP DP  RH WIND       PRES   REMARKS
BURLINGTON     CLOUDY    73  70  90 S13       30.01F
FAIRFIELD *    CLOUDY    75  70  83 S13G20    29.98R
FORT MADISON * CLOUDY    72  70  94 SE10      30.03R
KEOKUK *       CLOUDY    73  70  88 SE13      30.02R
OSKALOOSA *    CLOUDY    73  70  89 S13       29.96S
CENTERVILLE *  MOCLDY    73  72  94 SE10      29.97S
OTTUMWA        CLOUDY    74  70  87 S12       29.95S
WASHINGTON *   PTCLDY    72  70  94 SE12G20   29.99R
$$

ABBREVIATIONS USED IN REMARKS
   TC - TEMPERATURES IN CELSIUS
  WCI - WIND CHILL INDEX
   HX - HEAT INDEX
  VSB - VISIBILITY
$$





USA.gov is the U.S. government's official web portal to all federal, state and local government web resources and services.